Regional Weather Roundup
Issued by NWS

Home | Current Version | Previous Version | Text Only | Print | Product List | Glossary Off
Versions: 1 2 3 4 5 6 7 8 9 10 11 12 13 14 15 16 17 18 19 20 21 22 23 24 25 26 27 28 29 30 31 32 33 34 35 36 37 38 39 40 41 42 43 44 45 46 47 48 49 50

195
ASUS43 KTOP 280708
RWRKS

WEATHER ROUNDUP FOR KANSAS
NATIONAL WEATHER SERVICE GOODLAND KS
100 AM CST TUE FEB 28 2017

NOTE:  "FAIR" INDICATES FEW OR NO CLOUDS BELOW 12,000 FEET WITH NO
SIGNIFICANT WEATHER AND/OR OBSTRUCTIONS TO VISIBILITY.

KSZ001>006-013>018-027>032-041>047-280800-
NORTHWEST KANSAS

CITY           SKY/WX    TMP DP  RH WIND       PRES   REMARKS
GOODLAND       CLEAR     33  19  56 W14       29.67R WCI  23
HAYS             N/A     40  22  48 SW15      29.62S WCI  32
HILL CITY      CLEAR     47  20  34 W13       29.60F
RUSSELL        CLEAR     48  26  42 SW10      29.61R
$$

KSZ061>065-074>080-084>089-280800-
SOUTHWEST KANSAS

CITY           SKY/WX    TMP DP  RH WIND       PRES   REMARKS
DODGE CITY     PTCLDY    45  14  28 S10       29.69F
ELKHART          N/A     45  12  26 SW8         N/A
GARDEN CITY    PTCLDY    43  13  29 W8        29.68F
GREAT BEND     CLEAR     50  31  48 S12       29.66R
LIBERAL        MOCLDY    45  10  24 SW9       29.72S
PRATT          PTCLDY    43  35  73 S14       29.71R
$$

KSZ066>073-081>083-090>101-280800-
SOUTHEAST KANSAS

CITY           SKY/WX    TMP DP  RH WIND       PRES   REMARKS
CHANUTE        CLOUDY    63  58  83 S22G31    29.78F
COFFEYVILLE    CLOUDY    63  59  87 S15       29.80F
HUTCHINSON     PTCLDY    56  53  90 S16       29.68S
MEDICINE LODGE   N/A     49  44  83 S5        29.72R
NEWTON         PTCLDY    59  56  89 S24       29.69S
PARSONS        CLOUDY    64  58  80 S16G28    29.80F
WICHITA INTL   CLOUDY    59  58  96 S21G29    29.71S FOG
WICHITA JABRA  PTCLDY    60  58  92 S22G29    29.70F
WICHITA MCCONL MOCLDY    61  57  88 SW22G31   29.71F
WINFIELD       CLEAR     61  58  90 S20       29.75S
$$

KSZ007>012-019>026-033>040-048>060-102>105-280800-
NORTHEAST KANSAS

CITY           SKY/WX    TMP DP  RH WIND       PRES   REMARKS
CONCORDIA      CLEAR     49  42  77 S23G30    29.60R
EMPORIA        CLOUDY    61  58  90 S26G36    29.70F FOG
LAWRENCE       CLOUDY    62  58  86 S14G23    29.71F
MANHATTAN      CLOUDY    60  55  83 S18G29    29.63F
MARYSVILLE     CLEAR     45  45 100 SE7       29.60F
OLATHE IND     CLOUDY    60  55  83 S21G26    29.74F
OLATHE EXE     CLOUDY    60  57  89 S18G31    29.74F
SALINA         CLEAR     58  53  84 S22G30    29.64R
TOPEKA BILLARD CLOUDY    63  58  83 S18G35    29.68F
TOPEKA FORBES  CLOUDY    64  57  78 S24G32    29.68F
$$




USA.gov is the U.S. government's official web portal to all federal, state and local government web resources and services.